Three Rivers, MI

11:36 PM EST on February 13, 2016 (GMT -0500)
Three Rivers Municipal-Haines

Weather History for KHAI - December, 2009

Change the Weather History Date:

Sunday, December 6, 2009

  Actual Average Record
Temperature  
Mean Temperature 27 °F -  
Max Temperature 35 °F 38 °F 60 °F (1951)
Min Temperature 19 °F 24 °F 9 °F (1964)
Degree Days  
Heating Degree Days 38    
Moisture  
Dew Point 19 °F    
Average Humidity 70    
Maximum Humidity 93    
Minimum Humidity 52    
Precipitation  
Precipitation 0.00 in - - ()
Sea Level Pressure  
Sea Level Pressure 30.21 in    
Wind  
Wind Speed 7 mph (South)    
Max Wind Speed 16 mph    
Max Gust Speed 21 mph    
Visibility 10 miles    
Events      
Averages and records for this station are not official NWS values.
T = Trace of Precipitation, MM = Missing Value Source: NWS Daily Summary

Daily Weather History Graph

Daily Weather History Graph

Search for Another Location

Airport or City:

Trip Planner

Search our weather history database for the weather conditions in past years. The results will help you decide how hot, cold, wet, or windy it might be!

Date:

Astronomy

Dec. 06, 2009 Rise Set
Actual Time 7:55 AM EST 5:11 PM EST
Civil Twilight 7:24 AM EST 5:42 PM EST
Nautical Twilight 6:49 AM EST 6:17 PM EST
Astronomical Twilight 6:15 AM EST 6:51 PM EST
Moon 10:22 PM EST (12/6) 11:38 AM EST (12/6)
Length of Visible Light 10h 17m
Length of Day
9h 15m
Waning Gibbous, 75% of the Moon is Illuminated
Dec 6
Waning Gibbous
Dec 8
Last Quarter
Dec 16
New
Dec 24
First Quarter
Dec 31
Full

Hourly Weather History & Observations

Time (EST) Temp. Windchill Dew Point Humidity Pressure Visibility Wind Dir Wind Speed Gust Speed Precip Events Conditions
12:16 AM 21.2 °F 14.9 °F 15.8 °F 80% 30.19 in 10.0 mi South 4.6 mph - N/A   Clear
12:36 AM 21.2 °F 14.9 °F 15.8 °F 80% 30.18 in 10.0 mi South 4.6 mph - N/A   Clear
12:55 AM 23.0 °F 14.7 °F 17.6 °F 80% 30.17 in 10.0 mi South 6.9 mph - N/A   Clear
1:16 AM 23.0 °F 14.7 °F 17.6 °F 80% 30.17 in 10.0 mi South 6.9 mph - N/A   Clear
1:36 AM 23.0 °F 15.8 °F 17.6 °F 80% 30.18 in 10.0 mi SSW 5.8 mph - N/A   Clear
1:55 AM 21.2 °F - 17.6 °F 86% 30.19 in 10.0 mi Calm Calm - N/A   Clear
2:16 AM 21.2 °F 16.4 °F 17.6 °F 86% 30.19 in 10.0 mi South 3.5 mph - N/A   Clear
2:36 AM 21.2 °F 16.4 °F 17.6 °F 86% 30.20 in 10.0 mi South 3.5 mph - N/A   Clear
2:55 AM 21.2 °F 14.9 °F 17.6 °F 86% 30.21 in 10.0 mi SSE 4.6 mph - N/A   Clear
3:16 AM 21.2 °F 16.4 °F 17.6 °F 86% 30.21 in 10.0 mi South 3.5 mph - N/A   Clear
3:36 AM 19.4 °F 12.8 °F 17.6 °F 93% 30.21 in 10.0 mi SSE 4.6 mph - N/A   Clear
3:55 AM 21.2 °F 14.9 °F 17.6 °F 86% 30.20 in 10.0 mi SSE 4.6 mph - N/A   Clear
4:17 AM 21.2 °F 14.9 °F 17.6 °F 86% 30.20 in 10.0 mi South 4.6 mph - N/A   Clear
4:36 AM 21.2 °F 14.9 °F 17.6 °F 86% 30.21 in 10.0 mi South 4.6 mph - N/A   Clear
4:55 AM 21.2 °F 13.6 °F 17.6 °F 86% 30.21 in 10.0 mi South 5.8 mph - N/A   Clear
5:16 AM 21.2 °F 12.6 °F 17.6 °F 86% 30.21 in 10.0 mi South 6.9 mph - N/A   Clear
5:36 AM 23.0 °F 13.9 °F 17.6 °F 80% 30.21 in 10.0 mi South 8.1 mph - N/A   Clear
5:55 AM 23.0 °F 13.9 °F 17.6 °F 80% 30.21 in 10.0 mi South 8.1 mph - N/A   Clear
6:16 AM 23.0 °F 13.9 °F 17.6 °F 80% 30.21 in 10.0 mi South 8.1 mph - N/A   Clear
6:36 AM 23.0 °F 13.1 °F 17.6 °F 80% 30.22 in 10.0 mi South 9.2 mph - N/A   Clear
6:55 AM 23.0 °F 13.9 °F 17.6 °F 80% 30.22 in 10.0 mi South 8.1 mph - N/A   Clear
7:16 AM 23.0 °F 13.9 °F 17.6 °F 80% 30.22 in 10.0 mi South 8.1 mph - N/A   Clear
7:36 AM 23.0 °F 13.1 °F 17.6 °F 80% 30.22 in 10.0 mi South 9.2 mph - N/A   Clear
7:55 AM 23.0 °F 13.1 °F 17.6 °F 80% 30.22 in 10.0 mi South 9.2 mph - N/A   Clear
8:16 AM 23.0 °F 13.1 °F 19.4 °F 86% 30.22 in 10.0 mi South 9.2 mph - N/A   Clear
8:36 AM 24.8 °F 14.6 °F 19.4 °F 80% 30.22 in 10.0 mi South 10.4 mph - N/A   Clear
8:55 AM 26.6 °F 16.2 °F 19.4 °F 74% 30.23 in 10.0 mi SSW 11.5 mph - N/A   Clear
9:16 AM 26.6 °F 16.8 °F 19.4 °F 74% 30.23 in 10.0 mi SSW 10.4 mph - N/A   Clear
9:36 AM 28.4 °F 19.1 °F 19.4 °F 69% 30.24 in 10.0 mi SSW 10.4 mph - N/A   Clear
9:55 AM 28.4 °F 18.5 °F 19.4 °F 69% 30.24 in 10.0 mi SSW 11.5 mph - N/A   Clear
10:16 AM 30.2 °F 19.3 °F 19.4 °F 64% 30.24 in 10.0 mi SSW 15.0 mph 20.7 mph N/A   Clear
10:36 AM 30.2 °F 19.3 °F 19.4 °F 64% 30.24 in 10.0 mi SSW 15.0 mph - N/A   Clear
10:55 AM 32.0 °F 21.6 °F 19.4 °F 60% 30.25 in 10.0 mi SSW 15.0 mph - N/A   Clear
11:16 AM 32.0 °F 21.6 °F 19.4 °F 60% 30.24 in 10.0 mi SSW 15.0 mph - N/A   Clear
11:36 AM 32.0 °F 22.5 °F 19.4 °F 60% 30.23 in 10.0 mi SSW 12.7 mph 18.4 mph N/A   Clear
11:55 AM 33.8 °F 24.3 °F 19.4 °F 56% 30.22 in 10.0 mi South 13.8 mph - N/A   Clear
12:16 PM 33.8 °F 25.3 °F 19.4 °F 56% 30.21 in 10.0 mi SSW 11.5 mph - N/A   Clear
12:36 PM 35.6 °F 28.0 °F 19.4 °F 52% 30.20 in 10.0 mi SSW 10.4 mph - N/A   Clear
12:55 PM 35.6 °F 25.9 °F 19.4 °F 52% 30.20 in 10.0 mi SSW 16.1 mph - N/A   Clear
1:16 PM 35.6 °F 28.0 °F 19.4 °F 52% 30.19 in 10.0 mi SSW 10.4 mph - N/A   Clear
1:36 PM 35.6 °F 27.1 °F 19.4 °F 52% 30.19 in 10.0 mi South 12.7 mph - N/A   Clear
1:55 PM 35.6 °F 29.2 °F 19.4 °F 52% 30.18 in 10.0 mi SW 8.1 mph - N/A   Clear
2:16 PM 35.6 °F 27.5 °F 19.4 °F 52% 30.18 in 10.0 mi SSW 11.5 mph - N/A   Clear
2:36 PM 35.6 °F 28.6 °F 19.4 °F 52% 30.19 in 10.0 mi SSW 9.2 mph - N/A   Clear
2:55 PM 35.6 °F 27.5 °F 19.4 °F 52% 30.19 in 10.0 mi SSW 11.5 mph - N/A   Clear
3:16 PM 35.6 °F 28.0 °F 19.4 °F 52% 30.19 in 10.0 mi SSW 10.4 mph - N/A   Scattered Clouds
3:36 PM 33.8 °F 25.8 °F 19.4 °F 56% 30.20 in 10.0 mi SSW 10.4 mph - N/A   Mostly Cloudy
3:55 PM 33.8 °F 27.0 °F 19.4 °F 56% 30.20 in 10.0 mi SSW 8.1 mph - N/A   Scattered Clouds
4:16 PM 33.8 °F 27.0 °F 19.4 °F 56% 30.21 in 10.0 mi SSW 8.1 mph - N/A   Scattered Clouds
4:36 PM 33.8 °F 28.6 °F 19.4 °F 56% 30.21 in 10.0 mi SSW 5.8 mph - N/A   Clear
4:55 PM 32.0 °F 26.4 °F 21.2 °F 64% 30.22 in 10.0 mi SSW 5.8 mph - N/A   Clear
5:16 PM 32.0 °F 27.5 °F 21.2 °F 64% 30.22 in 10.0 mi South 4.6 mph - N/A   Clear
5:36 PM 32.0 °F 28.7 °F 21.2 °F 64% 30.22 in 10.0 mi South 3.5 mph - N/A   Clear
5:55 PM 32.0 °F 26.4 °F 21.2 °F 64% 30.22 in 10.0 mi South 5.8 mph - N/A   Clear
6:16 PM 32.0 °F 25.6 °F 21.2 °F 64% 30.21 in 10.0 mi South 6.9 mph - N/A   Clear
6:36 PM 32.0 °F 24.8 °F 21.2 °F 64% 30.21 in 10.0 mi South 8.1 mph - N/A   Clear
6:55 PM 32.0 °F 24.8 °F 21.2 °F 64% 30.22 in 10.0 mi South 8.1 mph - N/A   Clear
7:37 PM 32.0 °F 25.6 °F 21.2 °F 64% 30.21 in 10.0 mi South 6.9 mph - N/A   Clear
7:55 PM 32.0 °F 25.6 °F 21.2 °F 64% 30.21 in 10.0 mi South 6.9 mph - N/A   Clear
8:16 PM 32.0 °F 25.6 °F 23.0 °F 69% 30.22 in 10.0 mi South 6.9 mph - N/A   Clear
8:36 PM 32.0 °F 24.8 °F 23.0 °F 69% 30.21 in 10.0 mi South 8.1 mph - N/A   Clear
8:55 PM 32.0 °F 25.6 °F 21.2 °F 64% 30.21 in 10.0 mi South 6.9 mph - N/A   Clear
9:16 PM 32.0 °F 24.8 °F 21.2 °F 64% 30.19 in 10.0 mi South 8.1 mph - N/A   Clear
9:36 PM 32.0 °F 25.6 °F 21.2 °F 64% 30.17 in 10.0 mi SSE 6.9 mph - N/A   Clear
9:55 PM 30.2 °F 24.3 °F 21.2 °F 69% 30.17 in 10.0 mi SSE 5.8 mph - N/A   Clear
10:16 PM 30.2 °F 24.3 °F 21.2 °F 69% 30.17 in 10.0 mi SSE 5.8 mph - N/A   Clear
10:36 PM 30.2 °F 24.3 °F 21.2 °F 69% 30.17 in 10.0 mi SSE 5.8 mph - N/A   Clear
10:55 PM 30.2 °F 25.4 °F 21.2 °F 69% 30.17 in 10.0 mi SSE 4.6 mph - N/A   Clear
11:16 PM 28.4 °F 23.3 °F 21.2 °F 74% 30.18 in 10.0 mi South 4.6 mph - N/A   Clear
11:36 PM 28.4 °F 23.3 °F 21.2 °F 74% 30.17 in 10.0 mi South 4.6 mph - N/A   Clear
11:55 PM 28.4 °F - 21.2 °F 74% 30.17 in 10.0 mi Calm Calm - N/A   Clear